Location: Aghk�ilisa
(40.0189°N, 45.0097°E)
Time: 19:58:06
(UTC+00:00)

Cosmos 967 Rocket - Pass Details

Date: 21 October 2019
Orbit: 945 x 993 km, 65.8° (Epoch: 11 November)

Event Time Altitude Azimuth Distance (km) Brightness Sun altitude
Rises 15:48:32 0° 330° (NNW) 3,705 8.0 -19.1°
Reaches altitude 10° 15:51:07 10° 331° (NNW) 2,757 7.3 -19.6°
Maximum altitude 15:57:37 81° 59° (ENE) 1,008 4.4 -20.8°
Enters shadow 16:01:53 23° 145° (SE) 1,968 5.7 -21.6°
